SCP
0 0 0 0 0 0 0 0 0 0 0 0 0 0 0 0 0 0 0 0 0 0 0 0 0 0 0 0 0 0 0 0 0 1 1 1 1 1
0 0 0 0 0 0 0 0 0 0 0 0 0 0 0 0 0 0 0 0 0 0 0 0 0 0 0 0 0 0 0 0 0 0 1 1 1 1
0 0 0 0 0 0 0 0 0 0 0 0 0 0 0 0 0 0 0 0 0 0 0 0 0 0 0 0 0 0 0 0 0 0 0 0 0 0
0 0 0 0 0 0 0 0 0 0 0 0 0 0 0 0 0 0 0 0 0 0 0 0 0 0 0 0 0 0 0 0 0 0 0 0 0 0
0 0 0 0 0 0 0 0 0 0 0 0 0 0 0 0 0 0 0 0 0 0 0 0 0 0 0 0 0 0 0 0 0 0 0 0 0 0
0 0 0 0 0 0 0 0 0 0 0 0 0 0 0 0 0 0 0 0 0 0 0 0 0 0 0 0 0 0 0 0 0 0 0 0 0 0
0 0 0 0 0 0 0 0 0 0 0 0 0 0 0 0 0 0 0 0 0 0 0 0 0 0 0 0 0 0 0 0 0 0 0 0 0 0
0 0 0 0 0 0 0 0 0 0 0 0 0 0 0 0 0 0 0 0 0 0 0 0 0 0 0 0 0 0 0 0 0 0 0 0 0 0
0 0 0 0 0 0 0 0 0 0 0 0 0 0 0 0 0 0 0 0 0 0 0 0 0 0 0 0 0 0 0 0 0 0 0 0 0 0
0 0 0 0 0 0 0 0 0 0 0 0 0 0 0 0 0 0 0 0 0 0 0 0 0 0 0 0 0 0 0 0 0 0 0 0 1 1
0 0 0 0 0 0 0 0 0 0 0 0 0 0 0 0 0 0 0 0 0 0 0 0 0 0 0 0 0 0 0 0 0 0 0 0 0 0
0 0 0 0 0 0 0 0 0 0 0 0 0 0 0 0 0 0 0 0 0 0 0 0 0 0 0 0 0 0 0 0 0 0 0 0 0 0
0 0 0 0 0 0 0 0 0 0 0 0 0 0 0 0 0 0 0 0 0 0 0 0 0 0 0 0 0 0 1 1 1 0 0 0 0 0
0 0 0 0 0 0 0 0 0 0 0 0 0 0 0 0 0 0 0 0 0 0 0 0 0 0 0 0 0 0 1 1 1 1 0 0 0 0
0 0 0 0 0 0 0 0 0 0 0 0 0 0 0 0 0 0 0 0 0 0 0 0 0 0 0 0 0 0 1 1 1 1 0 0 0 0
0 0 0 0 0 0 0 0 0 0 0 0 0 0 0 0 0 0 0 0 0 0 0 0 0 0 0 0 0 0 1 1 1 1 0 0 0 0
0 0 0 0 0 0 0 0 0 0 0 0 0 0 0 0 0 0 0 0 0 0 0 0 0 0 0 0 0 0 1 1 1 0 0 0 0 0
0 0 0 0 0 0 0 0 0 0 0 0 0 0 0 0 0 0 0 0 0 0 0 0 0 0 0 0 0 0 0 1 1 0 0 0 0 0
0 0 0 0 0 0 0 0 0 0 0 0 0 0 0 0 0 0 0 0 0 0 0 0 0 0 0 0 0 0 0 0 0 0 0 0 0 0
0 0 0 0 0 0 0 0 0 0 0 0 0 0 0 0 0 0 0 0 0 0 0 0 0 0 0 0 0 0 0 0 0 0 0 0 0 0
0 0 0 0 0 0 0 0 0 0 0 0 0 0 0 0 0 0 0 0 0 0 0 0 0 0 0 0 0 0 0 0 0 0 0 0 0 0
0 0 0 0 0 0 0 0 0 0 0 0 0 0 0 0 0 0 0 0 0 0 0 0 0 0 0 0 0 0 0 0 0 0 0 0 0 0
0 0 0 0 0 0 0 0 0 0 0 0 0 0 0 0 0 0 0 0 0 0 0 0 0 0 0 0 0 0 0 0 0 0 0 0 0 0
Wind_Speed
3 3 2 2 2 2 2 3 4 2 1 2 2 2 2 1 2 2 3 6 7 7 8 8 8 8 8 8 9 9 10 10 9 9 8 8 8 8
2 4 3 2 2 2 2 2 2 3 1 1 1 1 1 2 3 2 3 6 6 7 7 8 8 8 8 8 8 9 9 9 9 8 8 8 8 8
3 3 3 3 3 2 2 2 2 3 3 1 1 1 2 2 2 2 2 3 3 6 6 7 7 7 7 8 8 8 9 8 8 9 9 8 8 8
2 3 2 3 3 2 2 3 2 2 3 1 1 2 2 1 1 2 2 2 2 5 6 6 6 6 7 8 7 8 8 8 8 8 8 8 8 8
2 2 2 3 3 2 3 2 2 2 2 2 0 1 1 2 2 2 3 3 2 3 4 5 5 6 6 6 6 7 7 7 7 6 7 7 7 7
2 2 2 2 2 2 2 2 2 3 3 2 1 1 1 2 2 2 2 3 3 3 4 4 5 6 6 6 6 6 5 6 6 5 5 6 6 6
2 1 1 2 3 3 2 2 3 2 2 2 1 1 1 1 1 1 1 2 3 2 2 3 3 3 3 5 5 6 5 5 5 5 5 5 6 6
2 1 2 2 3 5 5 4 4 4 3 2 1 1 1 1 1 0 1 2 3 2 2 3 2 2 3 2 4 5 5 5 5 5 5 5 6 6
2 2 1 2 2 2 4 5 4 3 4 4 3 2 2 2 1 0 0 0 2 3 1 3 2 3 3 3 6 5 5 5 5 6 6 6 6 6
2 2 2 1 1 3 3 3 2 2 1 1 2 2 2 2 2 2 1 0 2 2 1 2 3 3 4 3 6 6 6 6 6 6 6 6 6 6
1 1 2 1 1 4 4 2 2 2 2 3 2 1 2 1 1 2 2 2 2 3 1 0 2 3 4 3 4 6 6 6 6 7 7 7 6 6
1 1 2 2 2 4 4 3 1 1 1 3 3 4 3 2 3 1 1 1 1 2 2 0 2 3 4 3 3 3 4 5 7 7 7 7 6 3
1 1 1 1 3 3 3 2 2 1 1 2 2 2 2 2 2 1 1 1 1 3 3 1 1 1 2 4 4 3 3 3 3 4 6 7 7 4
2 1 0 2 3 3 2 2 4 4 2 2 2 2 2 2 2 2 2 1 2 3 3 1 1 2 2 4 4 4 3 3 2 3 3 5 6 6
2 3 2 3 3 3 3 4 4 3 2 2 1 1 1 2 2 2 3 3 3 3 2 2 1 2 2 3 4 4 4 4 3 3 3 3 3 3
2 2 4 4 4 3 3 3 2 1 1 1 1 1 1 1 2 2 2 3 3 4 4 3 2 2 2 4 3 4 4 3 3 3 4 4 3 3
3 3 2 2 2 2 2 2 1 1 1 0 0 1 1 2 2 2 1 2 2 3 5 5 4 3 3 3 3 4 4 4 4 3 3 4 4 4
5 2 2 1 1 0 0 1 1 1 0 0 0 0 1 1 2 2 2 1 2 3 4 4 4 4 4 3 4 3 3 4 4 4 3 4 6 5
4 2 2 2 1 1 1 1 1 1 0 0 0 1 1 2 2 2 2 2 3 3 4 3 3 2 4 6 5 3 3 4 4 4 3 4 5 6
2 2 2 2 2 2 2 1 1 1 0 1 1 1 1 1 2 2 2 3 4 4 4 3 3 3 3 5 5 6 5 4 3 4 4 4 5 7
3 3 3 3 2 2 2 2 2 2 2 2 2 2 2 2 3 3 3 5 4 4 5 5 5 6 3 2 4 5 5 5 5 4 4 4 5 5
3 3 3 3 3 3 2 2 2 2 2 2 2 2 3 2 3 4 4 4 4 4 5 5 4 3 2 3 5 6 6 5 6 8 7 6 4 4
3 3 2 2 2 2 2 2 3 3 3 3 3 3 3 3 4 4 4 5 5 5 5 4 3 3 3 3 4 5 6 6 4 5 5 8 10 11
Wind_Direction
74 78 76 54 55 68 103 134 137 125 332 317 337 342 351 24 25 37 34 37 35 29 34 40 40 45 44 39 34 30 23 27 32 35 35 33 30 29
73 73 63 49 53 55 76 88 116 136 147 282 284 302 343 45 48 37 35 34 31 32 40 40 44 48 45 40 35 31 28 29 30 31 32 31 31 29
64 75 63 57 59 45 58 73 83 109 119 308 337 349 23 34 19 18 28 23 16 24 32 36 39 43 40 36 35 34 31 28 27 30 30 29 28 25
76 76 62 69 62 50 65 68 75 100 125 124 343 354 11 8 21 26 21 25 13 18 26 30 32 34 32 28 31 31 27 25 25 25 23 20 18 17
113 106 92 89 71 61 70 71 69 74 90 116 49 352 2 13 29 16 17 5 355 7 17 21 23 24 23 24 25 24 21 21 21 21 17 13 10 8
104 112 114 122 129 111 88 87 90 80 77 91 75 13 0 348 35 16 1 354 350 358 3 12 15 14 10 11 14 16 15 15 15 12 8 6 5 3
82 81 95 115 122 118 113 121 110 99 89 89 80 34 355 359 341 317 355 333 332 338 346 349 350 349 343 342 350 356 357 359 359 356 352 352 354 353
120 85 70 66 80 84 91 107 127 130 133 125 132 152 262 275 290 349 25 5 326 324 360 327 346 330 314 310 324 334 339 341 340 340 343 342 341 342
135 130 102 77 80 87 74 68 68 97 141 152 158 203 215 230 194 26 349 270 267 289 342 314 323 313 304 319 327 325 324 324 327 329 330 332 333 334
124 142 133 108 119 123 101 66 40 23 60 134 170 205 212 213 188 187 198 286 307 312 357 303 314 308 313 314 321 320 322 320 320 320 322 322 321 322
89 105 121 126 135 124 110 91 42 1 21 58 74 54 47 63 82 71 42 41 337 313 319 263 301 311 308 305 316 329 328 322 318 318 316 317 314 315
60 42 72 100 121 124 125 122 97 325 15 23 27 22 22 23 34 107 161 137 308 298 287 285 303 328 321 305 311 320 320 316 315 315 315 316 314 311
115 19 344 66 94 113 123 138 161 145 90 65 38 16 10 7 355 343 223 182 213 263 271 244 290 304 287 300 308 303 301 301 311 311 313 318 316 303
159 185 140 101 93 91 94 84 85 87 78 64 48 17 357 338 327 330 323 295 248 252 271 255 258 265 287 297 297 302 302 294 297 300 299 315 318 314
147 140 115 93 85 69 62 72 81 83 84 72 45 316 294 299 335 350 349 345 340 329 327 299 275 274 257 267 282 292 303 301 293 294 299 301 292 296
111 105 94 87 78 60 48 51 63 94 118 149 244 287 325 351 350 347 344 344 346 331 332 329 302 276 280 274 270 284 287 286 297 299 297 296 291 283
116 79 62 54 46 31 25 22 32 46 56 39 61 355 348 350 336 339 345 345 334 320 324 328 326 307 270 265 282 282 287 287 280 289 298 299 292 285
117 110 113 113 125 130 65 358 358 351 335 17 29 350 335 331 329 333 339 331 312 306 305 309 324 335 333 305 249 267 285 286 290 291 285 290 294 291
122 144 160 179 193 198 198 204 245 264 269 270 290 303 318 321 324 320 320 320 310 302 301 306 319 330 324 313 301 287 284 293 297 295 285 277 281 287
167 179 191 194 195 201 211 220 235 244 241 254 267 277 284 296 305 301 294 296 299 301 303 301 293 286 274 279 285 294 291 285 291 293 292 288 280 284
201 205 204 199 203 207 212 215 217 230 244 246 254 264 269 276 282 283 283 292 295 292 292 289 283 292 289 297 297 295 293 292 287 284 289 297 302 302
206 212 216 210 206 207 209 211 223 236 244 244 254 261 263 263 270 278 280 284 281 280 283 286 296 303 292 281 287 293 299 304 306 305 294 285 285 285
216 216 219 217 215 213 212 216 224 241 243 247 254 258 262 267 269 272 277 278 283 288 292 294 299 294 285 279 282 289 297 304 309 313 304 301 297 292